FW5642 Weather Reports


Display with metric or nautical units.
time (UTC)temp
F
wind
direction
speed
MPH
gust
MPH
rain 1hr
in
rain 24hr
in
rain mn
in
humidity
%
barometer
mb
20260510200038 70 281 8.0 18.0 0.00 0.00 0.00 54 1017.7
20260510194535 70 294 9.0 19.0 0.00 0.00 0.00 55 1017.7
20260510193030 70 289 10.0 20.0 0.00 0.00 0.00 56 1017.8
20260510190030 70 287 8.0 16.0 0.00 0.00 0.00 57 1017.8
20260510183033 68 13 2.0 6.0 0.00 0.00 0.00 60 1017.8
20260510181531 67 4 2.0 6.0 0.00 0.00 0.00 62 1017.9
20260510174534 65 3 1.0 5.0 0.00 0.00 0.00 62 1018.1
20260510171532 64 48 0.0 0.0 0.00 0.00 0.00 66 1018.1
20260510170035 63 337 0.0 0.0 0.00 0.00 0.00 66 1018.3
20260510164536 61 43 0.0 4.0 0.00 0.00 0.00 67 1018.3
20260510161535 60 90 0.0 0.0 0.00 0.00 0.00 69 1018.4
20260510160141 58 90 0.0 0.0 0.00 0.00 0.00 70 1018.2
20260510154641 59 85 0.0 3.0 0.00 0.00 0.00 70 1018.1
20260510151535 56 277 0.0 0.0 0.00 0.00 0.00 75 1018.3
20260510150034 56 211 0.0 3.0 0.00 0.00 0.00 77 1018.1
20260510144605 55 135 0.0 0.0 0.00 0.00 0.00 78 1018.0
20260510143036 54 135 0.0 0.0 0.00 0.00 0.00 80 1017.9
20260510141536 53 135 0.0 0.0 0.00 0.00 0.00 79 1017.7
20260510140034 52 134 0.0 0.0 0.00 0.00 0.00 78 1017.9
20260510134529 51 102 0.0 1.0 0.00 0.00 0.00 77 1017.8
20260510133035 50 90 0.0 2.0 0.00 0.00 0.00 77 1017.8
20260510131552 49 89 0.0 0.0 0.00 0.00 0.00 82 1017.8
20260510123036 44 112 0.0 2.0 0.00 0.00 0.00 87 1017.9
20260510121544 44 96 0.0 2.0 0.00 0.00 0.00 87 1017.8
20260510120105 45 95 0.0 1.0 0.00 0.00 0.00 86 1017.8
20260510114535 45 90 0.0 0.0 0.00 0.00 0.00 85 1017.6
20260510113030 45 90 0.0 0.0 0.00 0.00 0.00 85 1017.5
20260510111533 45 90 0.0 0.0 0.00 0.00 0.00 85 1017.5
20260510110034 46 79 0.0 0.0 0.00 0.00 0.00 85 1017.7
20260510104531 46 337 0.0 4.0 0.00 0.00 0.00 85 1017.7
20260510103141 46 101 0.0 3.0 0.00 0.00 0.00 84 1017.6
20260510100109 46 116 0.0 2.0 0.00 0.00 0.00 82 1017.6
20260510094536 47 90 0.0 0.0 0.00 0.00 0.00 82 1017.7
20260510093032 47 90 0.0 0.0 0.00 0.00 0.00 81 1017.7
20260510091535 48 90 0.0 0.0 0.00 0.00 0.00 79 1017.8
20260510090036 48 90 0.0 0.0 0.00 0.00 0.00 78 1017.9
20260510084536 49 90 0.0 0.0 0.00 0.00 0.00 76 1018.0
20260510081529 50 72 0.0 0.0 0.00 0.00 0.00 73 1018.1
20260510080028 51 37 1.0 4.0 0.00 0.00 0.00 71 1018.0
20260510073036 53 351 0.0 0.0 0.00 0.00 0.00 69 1018.1
20260510071533 53 276 0.0 2.0 0.00 0.00 0.00 69 1018.0
20260510070029 52 259 0.0 3.0 0.00 0.00 0.00 71 1018.0
20260510064533 52 277 0.0 4.0 0.00 0.00 0.00 72 1017.9
20260510063038 52 20 0.0 3.0 0.00 0.00 0.00 72 1017.9
20260510061534 52 45 0.0 0.0 0.00 0.00 0.00 72 1017.8
20260510060034 53 45 0.0 0.0 0.00 0.00 0.00 71 1017.8
20260510054532 54 45 0.0 0.0 0.00 0.00 0.00 69 1017.8
20260510053037 54 45 0.0 0.0 0.00 0.00 0.00 68 1017.8
20260510051535 54 45 0.0 0.0 0.00 0.00 0.00 67 1017.7
20260510050036 55 57 0.0 2.0 0.00 0.00 0.00 65 1017.6
20260510044544 57 90 0.0 0.0 0.00 0.00 0.00 62 1017.6
20260510044536 58 90 0.0 0.0 0.00 0.00 0.00 59 1017.6
20260510041536 60 90 0.0 0.0 0.00 0.00 0.00 58 1017.4
20260510040031 61 90 0.0 0.0 0.00 0.00 0.00 56 1017.1
20260510034532 60 90 0.0 4.0 0.00 0.00 0.00 59 1016.9
20260510033031 60 90 0.0 0.0 0.00 0.00 0.00 59 1017.0
20260510031640 62 90 0.0 0.0 0.00 0.00 0.00 60 1016.9
20260510030031 63 90 0.0 0.0 0.00 0.00 0.00 59 1016.8
20260510024538 65 96 0.0 3.0 0.00 0.00 0.00 60 1016.6
20260510023034 67 135 0.0 2.0 0.00 0.00 0.00 58 1016.6
20260510021535 71 266 0.0 0.0 0.00 0.00 0.00 52 1016.6
20260510020037 73 270 0.0 0.0 0.00 0.00 0.00 48 1016.7
20260510014536 74 270 0.0 0.0 0.00 0.00 0.00 46 1016.8
20260510013036 77 270 0.0 1.0 0.00 0.00 0.00 37 1016.9
20260510010035 77 292 0.0 0.0 0.00 0.00 0.00 35 1017.1
20260510004535 79 33 0.0 1.0 0.00 0.00 0.00 32 1017.1
20260510003106 79 45 0.0 0.0 0.00 0.00 0.00 29 1017.1
20260510001530 79 45 0.0 0.0 0.00 0.00 0.00 27 1017.4
20260510000037 81 22 0.0 2.0 0.00 0.00 0.00 25 1017.6
20260509234535 82 360 0.0 5.0 0.00 0.00 0.00 25 1017.7
20260509233036 82 355 0.0 4.0 0.00 0.00 0.00 26 1017.9
20260509230034 81 46 0.0 3.0 0.00 0.00 0.00 26 1018.5
20260509224536 80 15 1.0 5.0 0.00 0.00 0.00 28 1018.8
20260509223036 79 7 1.0 7.0 0.00 0.00 0.00 30 1019.0
20260509220037 78 325 2.0 7.0 0.00 0.00 0.00 33 1019.5
20260509214641 77 351 1.0 7.0 0.00 0.00 0.00 34 1019.7
20260509213150 76 35 2.0 7.0 0.00 0.00 0.00 35 1020.0
20260509210033 74 1 2.0 7.0 0.00 0.00 0.00 39 1020.4
20260509204536 73 346 2.0 8.0 0.00 0.00 0.00 40 1020.6